Location: Little Chesterford
(52.0500°N, 0.1833°E)
Time: 05:29:12
(UTC+00:00)

Cosmos 2221 Rocket - Pass Details

Date: 26 September 2023
Orbit: 618 x 647 km, 82.5° (Epoch: 29 November)

Event Time Altitude Azimuth Distance (km) Brightness Sun altitude
Rises 20:14:28 0° 351° (N) 2,977 7.6 -22.3°
Reaches altitude 10° 20:16:45 10° 354° (N) 2,061 6.7 -22.7°
Enters shadow 20:21:09 65° 63° (ENE) 713 3.6 -23.2°
